User: anonymous   Login
Location: Al Mulaqqa?ah
(24.1833°N, 32.8833°E)
Time: 18:58:08
(UTC+00:00)
Language:

Palapa 6 Rocket - Orbit

View from above orbital plane
View from above orbital plane
View from above satellite
View from above satellite

Ground track
Ground track

The orbit data is extracted from the following two-line orbital elements,

1 20571U 90034B   21340.14598415  .00000549  00000-0  33139-4 0  9999
2 20571  22.7459 143.8173 0505430 343.8633  14.6259 14.12777372623133
Epoch (UTC): 06 December 2021 03:30:13
Eccentricity: 0.0505430
inclination: 22.7459°
perigee height: 484 km
apogee height: 1215 km
right ascension of ascending node: 143.8173°
argument of perigee: 343.8633°
revolutions per day: 14.12777372
mean anomaly at epoch: 14.6259°
orbit number at epoch: 62313

The dashed part of the orbit path shows where the satellite is in the earth's shadow,  

DLR